Flag for Czech Republic Weather past 2 weeks in Tábor, Czech Republic

Now
33 °F

Snow flurries. Overcast.


Feels Like: 27 °F
Forecast: 30 / 36 °F
Wind: 6 mph from West

Location: Kocelovice

Current Time: Jan 27, 2015 at 6:11:28 PM

Latest Report: Jan 27, 2015 at 5:00 PM


Visibility: 11 mi

Pressure: 30.07 "Hg

Humidity: 83%

Dew point: 28 °F

Location of TáborLocation

Historic Weather in Tábor — Graph

°F

Tábor temperature yesterday

Maximum temperature yesterday: 35 °F (at 3:00 PM)
Minimum temperature yesterday: 27 °F (at 7:00 AM)
Average temperature yesterday: 31 °F

Past Weeks' High & Low Weather Summary

 TemperatureHumidityPressure
High52 °F (Jan 13, 2:00 PM)100% (Jan 16, 10:00 AM)30.36 "Hg (Jan 16, 10:00 AM)
Low27 °F (Jan 15, 6:00 AM)34% (Jan 13, 1:00 PM)29.76 "Hg (Jan 17, 12:00 AM)
Average34 °F84%30.03 "Hg
* Reported Jan 12 4:00 PM — Jan 27 4:00 PM, Tábor, Weather by CustomWeather, © 2014

Note: Actual official high and low records may vary slightly from our data, if they occured in-between our weather recording intervals... More about our weather records

Advertising

Tábor weather history for previous 24 hours

 ConditionsComfort  
Time TempWeatherWind HumidityBarometerVisibility
4:00 PM
Jan 27
33 °FOvercast.8 mph82%30.05 "Hg12 mi
3:00 PM33 °FLight mixture of precip. Overcast.8 mph84%30.05 "Hg9 mi
2:00 PM33 °FLight mixture of precip. Overcast.7 mph84%30.05 "Hg5 mi
1:00 PM33 °FLight mixture of precip. Overcast.8 mph84%30.05 "Hg11 mi
12:00 PM33 °FOvercast.8 mph81%30.04 "Hg11 mi
11:00 AM32 °FSnow flurries. Overcast.8 mph87%30.04 "Hg2 mi
10:00 AM33 °FSnow flurries. Overcast.10 mph83%30.02 "Hg7 mi
9:00 AM32 °FSnow flurries. Low clouds.9 mph91%30.02 "Hg3 mi
8:00 AM32 °FSnow flurries. Low clouds.7 mph88%30.02 "Hg11 mi
7:00 AM31 °FSnow flurries. Overcast.6 mph89%30.01 "Hg9 mi
6:00 AM31 °FChilly.7 mph89%29.99 "Hg12 mi
5:00 AM31 °FChilly.6 mph91%29.98 "Hg12 mi
4:00 AM30 °FLight snow. Overcast.8 mph95%29.98 "Hg1 mi
3:00 AM30 °FLight snow. Overcast.7 mph94%29.98 "Hg2 mi
2:00 AM30 °FLight snow. Overcast.3 mph97%30.00 "Hg1 mi
1:00 AM29 °FSnow. Overcast.3 mph97%30.02 "Hg1 mi
12:00 AM29 °FSnow. Overcast.3 mph96%30.04 "Hg1 mi
11:00 PM
Jan 26
29 °FLight snow. Overcast.3 mph96%30.06 "Hg1 mi
9:00 PM30 °FLight snow. Overcast.5 mph81%30.11 "Hg12 mi
8:00 PM31 °FOvercast.3 mph77%30.14 "Hg12 mi
7:00 PM31 °FPassing clouds.2 mph83%30.16 "Hg12 mi
6:00 PM32 °FPassing clouds.2 mph81%30.18 "Hg12 mi
Weather by CustomWeather, © 2014

See weather overviewHow to use our weather pages